Location: Flynn Junction
(40.1314°N, 99.5162°W)
Time: 21:23:42
(UTC+00:00)

SL-16 R/B - Pass Details

Date: 29 October 2020
Orbit: 842 x 846 km, 71.0° (Epoch: 01 December)

Event Time Altitude Azimuth Distance (km) Brightness Sun altitude
Rises 12:17:38 0° 338° (NNW) 3,413 5.0 -9.6°
Reaches altitude 10° 12:20:06 10° 340° (NNW) 2,474 4.3 -9.1°
Maximum altitude 12:25:47 75° 66° (ENE) 879 2.5 -8.0°
Drops below altitude 10° 12:31:26 10° 152° (SSE) 2,459 5.2 -7.0°
Sets 12:33:52 0° 154° (SSE) 3,391 6.0 -6.5°
